| time (UTC) | temp F | wind direction | speed MPH | gust MPH | rain 1hr in | rain 24hr in | rain mn in | humidity % | barometer mb |
| 20260901100516 | 59 | 113 | 6.0 | 11.0 | 0.00 | 0.00 | 0.00 | 65 | 1019.9 |
| 20260901095516 | 58 | 90 | 2.0 | 4.0 | 0.00 | 0.00 | 0.00 | 71 | 1019.9 |
| 20260901094516 | 58 | 90 | 1.0 | 3.0 | 0.00 | 0.00 | 0.00 | 73 | 1020.0 |
| 20260901093516 | 58 | 90 | 1.0 | 3.0 | 0.00 | 0.00 | 0.00 | 73 | 1019.9 |
| 20260901092516 | 59 | 90 | 1.0 | 2.0 | 0.00 | 0.00 | 0.00 | 72 | 1019.9 |
| 20260901091516 | 60 | 90 | 2.0 | 7.0 | 0.00 | 0.00 | 0.00 | 69 | 1020.0 |
| 20260901090516 | 60 | 113 | 5.0 | 10.0 | 0.00 | 0.00 | 0.00 | 68 | 1020.1 |
| 20260901085516 | 58 | 113 | 1.0 | 2.0 | 0.00 | 0.00 | 0.00 | 75 | 1019.9 |
| 20260901084516 | 59 | 0.0 | 0.0 | 0.00 | 0.00 | 0.00 | 74 | 1019.9 | |
| 20260901083516 | 59 | 113 | 1.0 | 3.0 | 0.00 | 0.00 | 0.00 | 75 | 1020.0 |
| 20260901082516 | 59 | 0.0 | 1.0 | 0.00 | 0.00 | 0.00 | 74 | 1020.1 | |
| 20260901081516 | 60 | 0.0 | 1.0 | 0.00 | 0.00 | 0.00 | 73 | 1020.1 | |
| 20260901080516 | 60 | 0.0 | 1.0 | 0.00 | 0.00 | 0.00 | 73 | 1020.1 | |
| 20260901075516 | 60 | 113 | 2.0 | 3.0 | 0.00 | 0.00 | 0.00 | 72 | 1019.8 |
| 20260901074536 | 61 | 0.0 | 0.0 | 0.00 | 0.00 | 0.00 | 69 | 1020.2 | |
| 20260901073536 | 61 | 113 | 1.0 | 2.0 | 0.00 | 0.00 | 0.00 | 68 | 1020.1 |
| 20260901072516 | 61 | 113 | 1.0 | 3.0 | 0.00 | 0.00 | 0.00 | 68 | 1020.1 |
| 20260901071516 | 61 | 180 | 1.0 | 3.0 | 0.00 | 0.00 | 0.00 | 67 | 1019.9 |
| 20260901070516 | 61 | 158 | 1.0 | 2.0 | 0.00 | 0.00 | 0.00 | 67 | 1020.1 |
| 20260901065536 | 61 | 113 | 2.0 | 4.0 | 0.00 | 0.00 | 0.00 | 68 | 1020.1 |
| 20260901064516 | 62 | 0.0 | 0.0 | 0.00 | 0.00 | 0.00 | 67 | 1020.4 | |
| 20260901063516 | 62 | 0.0 | 0.0 | 0.00 | 0.00 | 0.00 | 65 | 1020.2 | |
| 20260901062536 | 62 | 270 | 1.0 | 4.0 | 0.00 | 0.00 | 0.00 | 63 | 1019.6 |
| 20260901061516 | 63 | 45 | 4.0 | 9.0 | 0.00 | 0.00 | 0.00 | 61 | 1019.7 |
| 20260901060516 | 61 | 90 | 6.0 | 9.0 | 0.00 | 0.00 | 0.00 | 67 | 1019.3 |
| 20260901055517 | 60 | 113 | 4.0 | 9.0 | 0.00 | 0.00 | 0.00 | 72 | 1019.1 |
| 20260901054517 | 60 | 90 | 1.0 | 4.0 | 0.00 | 0.00 | 0.00 | 75 | 1019.2 |
| 20260901053517 | 61 | 248 | 1.0 | 4.0 | 0.00 | 0.00 | 0.00 | 73 | 1019.7 |
| 20260901052516 | 61 | 0.0 | 0.0 | 0.00 | 0.00 | 0.00 | 72 | 1018.9 | |
| 20260901051516 | 61 | 0.0 | 0.0 | 0.00 | 0.00 | 0.00 | 72 | 1019.1 | |
| 20260901050517 | 61 | 0.0 | 2.0 | 0.00 | 0.00 | 0.00 | 73 | 1019.2 | |
| 20260901045517 | 61 | 90 | 4.0 | 10.0 | 0.00 | 0.00 | 0.00 | 73 | 1019.5 |
| 20260901044516 | 61 | 113 | 1.0 | 3.0 | 0.00 | 0.00 | 0.00 | 75 | 1019.6 |
| 20260901043516 | 60 | 0.0 | 3.0 | 0.00 | 0.00 | 0.00 | 75 | 1019.6 | |
| 20260901042517 | 59 | 113 | 2.0 | 6.0 | 0.00 | 0.00 | 0.00 | 78 | 1019.0 |
| 20260901041516 | 60 | 0.0 | 3.0 | 0.00 | 0.00 | 0.00 | 78 | 1019.3 | |
| 20260901040516 | 60 | 0.0 | 0.0 | 0.00 | 0.00 | 0.00 | 79 | 1019.1 | |
| 20260901035536 | 60 | 0.0 | 0.0 | 0.00 | 0.00 | 0.00 | 78 | 1018.9 | |
| 20260901034516 | 60 | 0.0 | 0.0 | 0.00 | 0.00 | 0.00 | 77 | 1019.0 | |
| 20260901033516 | 60 | 135 | 1.0 | 3.0 | 0.00 | 0.00 | 0.00 | 77 | 1019.1 |
| 20260901032517 | 60 | 135 | 1.0 | 3.0 | 0.00 | 0.00 | 0.00 | 78 | 1018.4 |
| 20260901031517 | 60 | 158 | 3.0 | 7.0 | 0.00 | 0.00 | 0.00 | 77 | 1018.1 |
| 20260901030536 | 62 | 135 | 4.0 | 7.0 | 0.00 | 0.00 | 0.00 | 73 | 1018.0 |
| 20260901025516 | 62 | 90 | 1.0 | 4.0 | 0.00 | 0.00 | 0.00 | 70 | 1017.5 |
| 20260901024537 | 62 | 45 | 5.0 | 11.0 | 0.00 | 0.00 | 0.00 | 68 | 1017.2 |
| 20260901023516 | 61 | 113 | 1.0 | 6.0 | 0.00 | 0.00 | 0.00 | 74 | 1016.9 |
| 20260901022517 | 61 | 23 | 2.0 | 3.0 | 0.00 | 0.00 | 0.00 | 75 | 1017.2 |
| 20260901021516 | 61 | 0.0 | 0.0 | 0.00 | 0.00 | 0.00 | 75 | 1017.5 | |
| 20260901020517 | 61 | 0.0 | 3.0 | 0.00 | 0.00 | 0.00 | 74 | 1017.7 | |
| 20260901015536 | 62 | 23 | 2.0 | 6.0 | 0.00 | 0.00 | 0.00 | 70 | 1018.1 |
| 20260901014516 | 62 | 315 | 1.0 | 5.0 | 0.00 | 0.00 | 0.00 | 70 | 1018.1 |
| 20260901013536 | 63 | 45 | 1.0 | 4.0 | 0.00 | 0.00 | 0.00 | 67 | 1018.3 |
| 20260901012516 | 63 | 68 | 4.0 | 7.0 | 0.00 | 0.00 | 0.00 | 69 | 1018.1 |
| 20260901011516 | 63 | 248 | 1.0 | 5.0 | 0.00 | 0.00 | 0.00 | 69 | 1018.3 |
| 20260901010516 | 63 | 225 | 1.0 | 4.0 | 0.00 | 0.00 | 0.00 | 69 | 1018.5 |
| 20260901005516 | 63 | 248 | 1.0 | 4.0 | 0.00 | 0.00 | 0.00 | 69 | 1018.7 |
| 20260901004516 | 64 | 248 | 2.0 | 6.0 | 0.00 | 0.00 | 0.00 | 66 | 1018.9 |
| 20260901003516 | 65 | 225 | 4.0 | 9.0 | 0.00 | 0.00 | 0.00 | 61 | 1018.8 |
| 20260901002516 | 65 | 180 | 7.0 | 14.0 | 0.00 | 0.00 | 0.00 | 59 | 1018.9 |
| 20260901001516 | 65 | 203 | 7.0 | 16.0 | 0.00 | 0.00 | 0.00 | 60 | 1018.7 |
| 20260901000536 | 65 | 158 | 8.0 | 18.0 | 0.00 | 0.00 | 0.00 | 61 | 1018.6 |
| 20260831235516 | 65 | 158 | 8.0 | 18.0 | 0.00 | 0.00 | 0.00 | 60 | 1018.6 |
| 20260831234517 | 65 | 135 | 11.0 | 21.0 | 0.00 | 0.00 | 0.00 | 60 | 1018.7 |
| 20260831233516 | 66 | 135 | 11.0 | 25.0 | 0.00 | 0.00 | 0.00 | 62 | 1018.5 |
| 20260831232517 | 69 | 225 | 8.0 | 18.0 | 0.00 | 0.00 | 0.00 | 54 | 1019.2 |
| 20260831231516 | 71 | 225 | 6.0 | 20.0 | 0.00 | 0.00 | 0.00 | 45 | 1017.9 |
| 20260831230516 | 74 | 315 | 8.0 | 24.0 | 0.00 | 0.00 | 0.00 | 43 | 1018.2 |
| 20260831225516 | 77 | 315 | 5.0 | 13.0 | 0.00 | 0.00 | 0.00 | 48 | 1017.8 |
| 20260831224516 | 78 | 248 | 2.0 | 10.0 | 0.00 | 0.00 | 0.00 | 43 | 1017.3 |
| 20260831223516 | 80 | 225 | 1.0 | 6.0 | 0.00 | 0.00 | 0.00 | 33 | 1017.1 |
| 20260831222536 | 80 | 158 | 3.0 | 9.0 | 0.00 | 0.00 | 0.00 | 30 | 1017.0 |
| 20260831221517 | 81 | 225 | 2.0 | 8.0 | 0.00 | 0.00 | 0.00 | 30 | 1016.9 |
| 20260831220516 | 81 | 203 | 3.0 | 9.0 | 0.00 | 0.00 | 0.00 | 28 | 1016.7 |
| 20260831215536 | 81 | 225 | 3.0 | 6.0 | 0.00 | 0.00 | 0.00 | 29 | 1017.2 |
| 20260831214516 | 82 | 225 | 3.0 | 7.0 | 0.00 | 0.00 | 0.00 | 28 | 1017.3 |
| 20260831213536 | 82 | 225 | 3.0 | 8.0 | 0.00 | 0.00 | 0.00 | 28 | 1017.6 |
| 20260831212516 | 83 | 135 | 2.0 | 7.0 | 0.00 | 0.00 | 0.00 | 28 | 1017.3 |
| 20260831211516 | 82 | 248 | 1.0 | 5.0 | 0.00 | 0.00 | 0.00 | 29 | 1017.4 |
| 20260831210516 | 82 | 225 | 3.0 | 8.0 | 0.00 | 0.00 | 0.00 | 28 | 1017.6 |
| 20260831205537 | 83 | 135 | 3.0 | 12.0 | 0.00 | 0.00 | 0.00 | 27 | 1018.0 |
| 20260831204516 | 83 | 158 | 4.0 | 10.0 | 0.00 | 0.00 | 0.00 | 27 | 1018.2 |
| 20260831203516 | 82 | 225 | 3.0 | 9.0 | 0.00 | 0.00 | 0.00 | 27 | 1018.4 |
| 20260831202516 | 82 | 248 | 3.0 | 11.0 | 0.00 | 0.00 | 0.00 | 28 | 1018.1 |
| 20260831201516 | 82 | 248 | 3.0 | 6.0 | 0.00 | 0.00 | 0.00 | 30 | 1018.3 |
| 20260831200516 | 81 | 248 | 2.0 | 8.0 | 0.00 | 0.00 | 0.00 | 32 | 1018.1 |
| 20260831195516 | 80 | 248 | 1.0 | 5.0 | 0.00 | 0.00 | 0.00 | 36 | 1018.8 |
| 20260831194517 | 80 | 0.0 | 3.0 | 0.00 | 0.00 | 0.00 | 38 | 1018.9 | |
| 20260831193516 | 79 | 248 | 1.0 | 3.0 | 0.00 | 0.00 | 0.00 | 38 | 1019.2 |
| 20260831192536 | 78 | 248 | 1.0 | 3.0 | 0.00 | 0.00 | 0.00 | 39 | 1019.1 |
| 20260831191516 | 78 | 248 | 3.0 | 6.0 | 0.00 | 0.00 | 0.00 | 38 | 1019.1 |
| 20260831190516 | 79 | 248 | 1.0 | 7.0 | 0.00 | 0.00 | 0.00 | 36 | 1019.2 |
| 20260831185516 | 79 | 0.0 | 3.0 | 0.00 | 0.00 | 0.00 | 36 | 1019.3 | |
| 20260831184516 | 79 | 270 | 2.0 | 5.0 | 0.00 | 0.00 | 0.00 | 36 | 1019.5 |
| 20260831183516 | 79 | 315 | 1.0 | 3.0 | 0.00 | 0.00 | 0.00 | 36 | 1019.7 |
| 20260831182516 | 78 | 248 | 2.0 | 4.0 | 0.00 | 0.00 | 0.00 | 37 | 1019.7 |
| 20260831181516 | 77 | 248 | 1.0 | 4.0 | 0.00 | 0.00 | 0.00 | 36 | 1019.8 |
| 20260831180516 | 77 | 270 | 1.0 | 3.0 | 0.00 | 0.00 | 0.00 | 36 | 1019.9 |
| 20260831175516 | 77 | 270 | 1.0 | 3.0 | 0.00 | 0.00 | 0.00 | 36 | 1020.1 |
| 20260831174516 | 76 | 270 | 1.0 | 3.0 | 0.00 | 0.00 | 0.00 | 35 | 1020.0 |
| 20260831173521 | 75 | 248 | 1.0 | 5.0 | 0.00 | 0.00 | 0.00 | 37 | 1019.8 |
| 20260831172516 | 75 | 0.0 | 3.0 | 0.00 | 0.00 | 0.00 | 40 | 1020.0 | |
| 20260831171516 | 73 | 0.0 | 2.0 | 0.00 | 0.00 | 0.00 | 41 | 1019.8 | |
| 20260831170516 | 72 | 248 | 3.0 | 6.0 | 0.00 | 0.00 | 0.00 | 41 | 1019.7 |
| 20260831165516 | 73 | 248 | 2.0 | 4.0 | 0.00 | 0.00 | 0.00 | 40 | 1019.6 |
| 20260831164517 | 73 | 248 | 2.0 | 5.0 | 0.00 | 0.00 | 0.00 | 39 | 1019.6 |
| 20260831163516 | 74 | 225 | 1.0 | 4.0 | 0.00 | 0.00 | 0.00 | 36 | 1019.9 |
| 20260831162516 | 74 | 0.0 | 0.0 | 0.00 | 0.00 | 0.00 | 38 | 1019.7 | |
| 20260831161516 | 72 | 0.0 | 0.0 | 0.00 | 0.00 | 0.00 | 40 | 1019.4 | |
| 20260831160516 | 71 | 248 | 2.0 | 6.0 | 0.00 | 0.00 | 0.00 | 42 | 1019.6 |
| 20260831155516 | 72 | 0.0 | 0.0 | 0.00 | 0.00 | 0.00 | 43 | 1019.5 | |
| 20260831154516 | 71 | 0.0 | 0.0 | 0.00 | 0.00 | 0.00 | 41 | 1019.4 | |
| 20260831153516 | 71 | 0.0 | 0.0 | 0.00 | 0.00 | 0.00 | 41 | 1019.7 | |
| 20260831152516 | 70 | 113 | 1.0 | 3.0 | 0.00 | 0.00 | 0.00 | 39 | 1019.7 |
| 20260831151516 | 68 | 135 | 3.0 | 6.0 | 0.00 | 0.00 | 0.00 | 41 | 1019.4 |
| 20260831150516 | 67 | 113 | 1.0 | 3.0 | 0.00 | 0.00 | 0.00 | 41 | 1019.4 |
| 20260831145516 | 66 | 113 | 5.0 | 11.0 | 0.00 | 0.00 | 0.00 | 41 | 1019.1 |
| 20260831144556 | 65 | 113 | 2.0 | 5.0 | 0.00 | 0.00 | 0.00 | 41 | 1019.0 |
| 20260831143516 | 64 | 113 | 1.0 | 3.0 | 0.00 | 0.00 | 0.00 | 44 | 1018.9 |
| 20260831142536 | 64 | 113 | 1.0 | 3.0 | 0.00 | 0.00 | 0.00 | 42 | 1019.5 |
| 20260831141516 | 65 | 135 | 5.0 | 11.0 | 0.00 | 0.00 | 0.00 | 39 | 1019.4 |
| 20260831140516 | 64 | 90 | 3.0 | 9.0 | 0.00 | 0.00 | 0.00 | 40 | 1019.4 |
| 20260831135516 | 64 | 0.0 | 1.0 | 0.00 | 0.00 | 0.00 | 40 | 1019.2 | |
| 20260831134516 | 64 | 135 | 3.0 | 7.0 | 0.00 | 0.00 | 0.00 | 36 | 1019.0 |
| 20260831133517 | 65 | 113 | 1.0 | 5.0 | 0.00 | 0.00 | 0.00 | 38 | 1018.9 |
| 20260831132516 | 64 | 113 | 6.0 | 16.0 | 0.00 | 0.00 | 0.00 | 34 | 1019.2 |
| 20260831131516 | 64 | 68 | 2.0 | 4.0 | 0.00 | 0.00 | 0.00 | 37 | 1019.2 |
| 20260831130516 | 65 | 113 | 6.0 | 12.0 | 0.00 | 0.00 | 0.00 | 36 | 1019.1 |
| 20260831125516 | 62 | 135 | 2.0 | 7.0 | 0.00 | 0.00 | 0.00 | 39 | 1018.8 |
| 20260831124516 | 62 | 135 | 1.0 | 2.0 | 0.00 | 0.00 | 0.00 | 42 | 1018.9 |
| 20260831123516 | 64 | 135 | 2.0 | 7.0 | 0.00 | 0.00 | 0.00 | 38 | 1019.2 |
| 20260831122516 | 63 | 113 | 2.0 | 7.0 | 0.00 | 0.00 | 0.00 | 40 | 1019.6 |
| 20260831121516 | 64 | 113 | 1.0 | 10.0 | 0.00 | 0.00 | 0.00 | 38 | 1019.7 |
| 20260831120516 | 64 | 113 | 2.0 | 9.0 | 0.00 | 0.00 | 0.00 | 38 | 1019.7 |
| 20260831115516 | 64 | 113 | 3.0 | 8.0 | 0.00 | 0.00 | 0.00 | 39 | 1019.4 |
| 20260831114516 | 65 | 113 | 6.0 | 10.0 | 0.00 | 0.01 | 0.00 | 37 | 1019.3 |
| 20260831113516 | 64 | 113 | 6.0 | 12.0 | 0.00 | 0.17 | 0.00 | 37 | 1019.4 |
| 20260831112516 | 63 | 135 | 6.0 | 9.0 | 0.00 | 0.17 | 0.00 | 40 | 1019.6 |
| 20260831111516 | 64 | 90 | 7.0 | 15.0 | 0.00 | 0.17 | 0.00 | 37 | 1019.7 |
| 20260831110516 | 65 | 68 | 3.0 | 6.0 | 0.00 | 0.17 | 0.00 | 37 | 1019.5 |
| 20260831105516 | 66 | 113 | 7.0 | 15.0 | 0.00 | 0.17 | 0.00 | 35 | 1019.8 |
| 20260831104516 | 66 | 90 | 8.0 | 14.0 | 0.00 | 0.17 | 0.00 | 35 | 1020.0 |
| 20260831103516 | 65 | 90 | 8.0 | 18.0 | 0.00 | 0.17 | 0.00 | 37 | 1019.8 |
| 20260831102516 | 65 | 113 | 6.0 | 14.0 | 0.00 | 0.17 | 0.00 | 38 | 1020.0 |
| 20260831101516 | 67 | 113 | 5.0 | 11.0 | 0.00 | 0.17 | 0.00 | 35 | 1020.1 |